TimeMST,TemperatureF,Dew PointF,Humidity,Sea Level PressureIn,VisibilityMPH,Wind Direction,Wind SpeedMPH,Gust SpeedMPH,PrecipitationIn,Events,Conditions,WindDirDegrees,DateUTC
12:53 AM,51.1,24.1,35,29.88,10.0,South,8.1,-,N/A,,Clear,190,2013-03-19 07:53:00
1:53 AM,50.0,24.1,36,29.88,10.0,South,6.9,-,N/A,,Clear,170,2013-03-19 08:53:00
2:53 AM,48.9,26.1,41,29.87,10.0,South,4.6,-,N/A,,Partly Cloudy,190,2013-03-19 09:53:00
3:53 AM,48.9,24.1,38,29.85,10.0,South,5.8,-,N/A,,Clear,190,2013-03-19 10:53:00
4:53 AM,50.0,21.9,33,29.85,10.0,South,6.9,-,N/A,,Clear,180,2013-03-19 11:53:00
5:53 AM,50.0,25.0,38,29.88,10.0,South,5.8,-,N/A,,Overcast,190,2013-03-19 12:53:00
6:53 AM,51.1,23.0,33,29.91,10.0,South,3.5,-,N/A,,Mostly Cloudy,180,2013-03-19 13:53:00
7:53 AM,53.1,24.1,32,29.93,10.0,SSE,3.5,-,N/A,,Overcast,150,2013-03-19 14:53:00
8:53 AM,59.0,25.0,27,29.93,10.0,NE,3.5,-,N/A,,Partly Cloudy,40,2013-03-19 15:53:00
9:53 AM,61.0,21.9,22,29.94,10.0,Variable,5.8,-,N/A,,Clear,0,2013-03-19 16:53:00
10:53 AM,64.0,19.9,18,29.93,10.0,ENE,4.6,-,N/A,,Clear,70,2013-03-19 17:53:00
11:53 AM,64.9,19.0,17,29.93,10.0,North,6.9,-,N/A,,Scattered Clouds,350,2013-03-19 18:53:00
12:53 PM,66.9,19.0,16,29.91,10.0,Calm,Calm,-,N/A,,Scattered Clouds,0,2013-03-19 19:53:00
1:53 PM,69.1,17.1,14,29.89,10.0,West,5.8,-,N/A,,Scattered Clouds,270,2013-03-19 20:53:00
2:53 PM,64.9,17.1,16,29.90,10.0,SSE,3.5,-,N/A,,Scattered Clouds,150,2013-03-19 21:53:00
3:53 PM,68.0,19.0,15,29.89,10.0,SSE,5.8,-,N/A,,Mostly Cloudy,160,2013-03-19 22:53:00
4:53 PM,69.1,17.1,14,29.89,10.0,Variable,5.8,-,N/A,,Overcast,0,2013-03-19 23:53:00
5:53 PM,66.9,17.1,15,29.90,10.0,Calm,Calm,-,N/A,,Partly Cloudy,0,2013-03-20 00:53:00
6:53 PM,61.0,23.0,23,29.94,10.0,WSW,5.8,-,N/A,,Clear,250,2013-03-20 01:53:00
7:53 PM,59.0,24.1,26,29.98,10.0,Calm,Calm,-,N/A,,Clear,0,2013-03-20 02:53:00
8:53 PM,55.9,25.0,30,29.98,10.0,Calm,Calm,-,N/A,,Clear,0,2013-03-20 03:53:00
9:53 PM,54.0,28.0,37,29.99,10.0,SSW,9.2,-,N/A,,Clear,200,2013-03-20 04:53:00
10:53 PM,50.0,28.0,43,30.02,10.0,Calm,Calm,-,N/A,,Clear,0,2013-03-20 05:53:00
11:53 PM,51.1,28.0,41,30.02,10.0,Calm,Calm,-,N/A,,Clear,0,2013-03-20 06:53:00